Simultaneous Nadir Overpasses (SNOs) Predictions

Prediction of SNOs between FY3D and NOAA-19 Satellite Orbit:

Table of predicted SNOs for the next 14.0 days since TLE Epoch: 1/23/2021
Index Date (FY3D) Time (FY3D) Lat,Lon (FY3D) SZA (FY3D ) Date (NOAA-19) Time (NOAA-19) Lat,Lon (NOAA-19) SZA (NOAA-19 ) Distance(km) Time Diff (sec)
1 02/02/2021 09:54:27 78.81, 4.03 96.96 02/02/2021 09:53:15 78.81, 4.03 96.98 0.31 72
2 02/02/2021 10:45:11 -78.82, 171.30 83.05 02/02/2021 10:44:11 -78.82, 171.40 83.03 2.31 60
3 02/02/2021 11:35:56 78.81, -21.34 96.94 02/02/2021 11:35:15 78.82, -21.36 96.96 1.35 41
4 02/02/2021 12:26:40 -78.82, 145.92 83.07 02/02/2021 12:26:11 -78.84, 146.01 83.05 2.73 29
5 02/02/2021 13:17:25 78.81, -46.71 96.92 02/02/2021 13:17:15 78.84, -46.75 96.95 2.96 10
6 02/02/2021 14:08:09 -78.82, 120.55 83.09 02/02/2021 14:08:11 -78.85, 120.62 83.07 3.87 2
7 02/02/2021 14:58:55 78.85, -72.33 96.95 02/02/2021 14:59:16 78.82, -72.40 96.92 3.72 21
8 02/02/2021 15:49:39 -78.86, 94.94 83.05 02/02/2021 15:50:12 -78.83, 94.98 83.09 2.77 33
9 02/02/2021 16:40:24 78.85, -97.70 96.93 02/02/2021 16:41:16 78.83, -97.79 96.90 2.65 52
10 02/02/2021 17:31:08 -78.86, 69.57 83.07 02/02/2021 17:32:12 -78.85, 69.60 83.11 1.17 64



Historial Predications of SNOs between FY3D and NOAA-19
